Concordia, KS

11:12 PM CST on December 09, 2019 (GMT -0600)
Blosser Municipal

Weather History for KCNK - October, 2019

Change the Weather History Date:

Tuesday, October 22, 2019

  Actual Average Record
Temperature  
Mean Temperature 51 °F 53 °F  
Max Temperature 65 °F 65 °F 89 °F (1899)
Min Temperature 37 °F 42 °F 24 °F (1898)
Degree Days  
Heating Degree Days 14 12  
Month to date heating degree days 187 193  
Since 1 July heating degree days 190 266  
Cooling Degree Days 0 0  
Month to date cooling degree days 9 20  
Year to date cooling degree days 1657 1346  
Moisture  
Dew Point 29 °F    
Average Humidity 47    
Maximum Humidity 70    
Minimum Humidity 24    
Precipitation  
Precipitation 0.00 in 0.06 in 2.05 in (1932)
Month to date precipitation 1.20 1.46  
Year to date precipitation 32.22 25.47  
Snow  
Snow 0.00 in 0.10 in 0.60 in (1979)
Month to date snowfall 0.0 0.1  
Year to date snowfall 32.3 13.8  
Since 1 July snowfall 0.0 0.1  
Snow Depth 0.00 in    
Sea Level Pressure  
Sea Level Pressure 30.00 in    
Wind  
Wind Speed 12 mph (West)    
Max Wind Speed 24 mph    
Max Gust Speed 33 mph    
Visibility 10 miles    
Events      
T = Trace of Precipitation, MM = Missing Value Source: NWS Daily Summary

Daily Weather History Graph

Daily Weather History Graph

Search for Another Location

Airport or City:

Astronomy

Oct. 22, 2019 Rise Set
Actual Time 7:47 AM CDT 6:41 PM CDT
Civil Twilight 7:20 AM CDT 7:09 PM CDT
Nautical Twilight 6:48 AM CDT 7:40 PM CDT
Astronomical Twilight 6:17 AM CDT 8:11 PM CDT
Moon 1:01 AM CDT (10/22) 3:50 PM CDT (10/22)
Length of Visible Light 11h 48m
Length of Day
10h 54m
Last Quarter, 37% of the Moon is Illuminated
Oct 22
Last Quarter
Oct 27
New
Nov 4
First Quarter
Nov 12
Full
Nov 19
Last Quarter

Hourly Weather History & Observations

Time (CDT) Temp. Windchill Dew Point Humidity Pressure Visibility Wind Dir Wind Speed Gust Speed Precip Events Conditions
12:55 AM 46.0 °F 39.6 °F 27.0 °F 47% 29.96 in 10.0 mi West 15.0 mph - N/A   Clear
1:55 AM 43.0 °F 36.8 °F 27.0 °F 53% 29.98 in 10.0 mi West 11.5 mph - N/A   Clear
2:55 AM 41.0 °F 33.5 °F 27.0 °F 57% 29.99 in 10.0 mi West 13.8 mph - N/A   Clear
3:55 AM 42.1 °F 34.5 °F 26.1 °F 53% 29.99 in 10.0 mi West 15.0 mph - N/A   Clear
5:55 AM 39.9 °F 32.9 °F 27.0 °F 60% 30.02 in 10.0 mi West 11.5 mph - N/A   Clear
6:55 AM 39.0 °F 31.4 °F 27.0 °F 62% 30.05 in 10.0 mi West 12.7 mph - N/A   Clear
7:55 AM 37.0 °F 29.8 °F 28.0 °F 70% 30.06 in 10.0 mi West 10.4 mph - N/A   Clear
8:55 AM 41.0 °F 33.9 °F 28.9 °F 62% 30.08 in 10.0 mi West 12.7 mph - N/A   Clear
9:55 AM 46.9 °F - 30.9 °F 54% 30.10 in 10.0 mi WNW 15.0 mph - N/A   Clear
10:55 AM 53.1 °F - 33.1 °F 47% 30.09 in 10.0 mi WNW 15.0 mph - N/A   Clear
11:55 AM 55.9 °F - 33.1 °F 42% 30.08 in 10.0 mi WNW 17.3 mph - N/A   Clear
12:55 PM 60.1 °F - 30.0 °F 32% 30.06 in 10.0 mi West 15.0 mph 21.9 mph N/A   Clear
1:55 PM 62.1 °F - 30.0 °F 30% 30.02 in 10.0 mi West 17.3 mph 27.6 mph N/A   Scattered Clouds
2:55 PM 63.0 °F - 27.0 °F 26% 29.99 in 10.0 mi WNW 17.3 mph 29.9 mph N/A   Partly Cloudy
3:55 PM 64.0 °F - 26.1 °F 24% 29.97 in 10.0 mi WNW 17.3 mph 29.9 mph N/A   Partly Cloudy
4:55 PM 64.0 °F - 28.0 °F 26% 29.96 in 10.0 mi WNW 13.8 mph - N/A   Mostly Cloudy
5:55 PM 63.0 °F - 28.0 °F 27% 29.95 in 10.0 mi NNW 9.2 mph - N/A   Partly Cloudy
6:55 PM 57.9 °F - 28.9 °F 33% 29.95 in 10.0 mi Calm Calm - N/A   Clear
7:55 PM 54.0 °F - 28.9 °F 38% 29.94 in 10.0 mi SW 8.1 mph - N/A   Clear
8:55 PM 51.1 °F - 28.9 °F 43% 29.93 in 10.0 mi SSW 5.8 mph - N/A   Clear
9:55 PM 53.1 °F - 30.0 °F 41% 29.92 in 10.0 mi SSW 8.1 mph - N/A   Scattered Clouds
10:55 PM 55.0 °F - 30.0 °F 38% 29.91 in 10.0 mi SSW 9.2 mph - N/A   Overcast
11:55 PM 55.0 °F - 30.0 °F 38% 29.88 in 10.0 mi SSW 11.5 mph - N/A   Mostly Cloudy